Погода в Рыбновске

Россия / Сахалинская область     53°16′29″N   141°47′30″E
темп.,
°C
ветер,
м/с
пор.,
м/с
влажн.,
%
обл.,
%
осадки,
мм/ч
давл.,
гПа
погр.,
м
23 октября, сб
сб2323:00+4юз81168100 0.0 1010532
02:00+4зюз81266100 0.0 1008506
05:00+4з6966100 0.0 1007529
08:00+4зюз596898 0.0 1007419
11:00+5з8116796 0.0 1007529
14:00+6зсз8107312 0.0 1007629
17:00+6зсз8117898 0.2 1008721
20:00+4ссз237431 0.3 1010298
24 октября, вс
вс2423:00+4з58835 0.3 1010315
02:00+4зюз510805 0.0 1008332
05:00+5юз51279100 0.0 1005334
08:00+4зсз141986100 1.5 10051152
11:00+5ссз13148975 1.6 1008920
14:00+4ссз11136999 0.1 10121223
17:00+4ссз810715 0.1 10151074
20:00+4сз45746 0.0 1017686
25 октября, пн
пн2523:00+3ююз3378100 0.0 1017175
02:00+4ю7882100 0.0 1016331
05:00+4ю810855 0.0 1015282
08:00+4ююз811865 0.0 1014299
11:00+5ююз810875 0.0 1014299
14:00+5ююз77845 0.0 1012243
17:00+6ююз56835 0.0 1011123
20:00+5ююз45865 0.0 101267
26 октября, вт
вт2623:00+5ю56873 0.0 1011112
02:00+5ююз45850 0.0 1011114
05:00+4ююз44840 0.0 101189
08:00+4ю22840 0.0 101146
11:00+5ю33810 0.0 101294
14:00+5ююз33790 0.0 1011141
17:00+5ю34800 0.0 101183
20:00+5ююв33783 0.0 101135
27 октября, ср
ср2723:00+5ю4586100 0.0 101167
02:00+5ю578997 0.0 1010166
05:00+5ююз4589100 0.0 1009144
08:00+5ююз3487100 0.0 1008105
11:00+5ююз2384100 0.0 100985
14:00+5ю2284100 0.0 100876
17:00+5з2281100 0.0 100964
20:00+5ссз3390100 0.6 1010151